Location: Hohenfelde
(53.8441°N, 9.6220°E)
Time: 11:53:43
(UTC+00:00)

Meteor 1-4 Rocket - Pass Details

Date: 14 July 2020
Orbit: 449 x 502 km, 81.2° (Epoch: 10 August)

Event Time Altitude Azimuth Distance (km) Brightness Sun altitude
Rises 00:13:38 0° 343° (NNW) 2,599 7.4 -13.9°
Reaches altitude 10° 00:15:48 10° 340° (NNW) 1,704 6.2 -13.8°
Maximum altitude 00:19:28 57° 261° (W) 582 2.8 -13.7°
Enters shadow 00:21:24 25° 191° (S) 1,023 3.6 -13.6°
